SCP
0 0 0 0 0 0 0 0 0 0 0 0 0 0 0 0 0 0 0 0 0 0 0 0 0 0 0 0 0 0 0 0 0 0 0 0 0 0 0 0 0 0 0
0 0 0 0 0 0 0 0 0 0 0 1 0 0 0 0 0 0 0 0 0 0 0 0 0 0 0 0 0 0 0 0 0 0 0 0 0 0 0 0 0 0 0
0 0 0 0 0 0 0 0 0 0 0 1 1 0 0 0 0 0 0 0 0 0 0 0 0 0 0 0 0 0 0 0 0 0 0 0 0 0 0 0 0 0 0
0 0 0 0 0 0 0 0 0 0 0 1 1 0 0 0 0 0 0 0 0 0 0 0 0 0 0 0 0 0 0 0 0 0 0 0 0 0 0 0 0 0 0
0 0 0 0 0 0 0 0 0 0 0 0 0 1 0 0 0 0 0 0 0 0 0 0 0 0 0 0 0 0 0 0 0 0 0 0 0 0 0 0 0 0 0
0 0 0 0 0 0 0 0 0 0 0 0 0 0 0 0 0 0 0 0 0 0 0 0 0 0 0 0 0 0 0 0 0 0 0 0 0 0 0 0 0 0 0
0 0 0 0 0 0 0 0 0 0 0 0 0 0 0 0 0 0 0 0 0 0 0 0 0 0 0 0 0 0 0 0 0 0 0 0 0 0 0 0 0 0 0
0 0 0 0 0 0 0 0 0 0 0 0 0 0 0 0 0 0 0 0 0 0 0 0 0 0 0 0 0 0 0 0 0 0 0 0 0 0 0 0 0 0 0
0 0 0 1 0 0 0 0 0 0 0 0 0 0 0 0 0 0 0 0 0 0 0 0 0 0 0 0 0 0 0 0 0 0 0 0 0 0 0 0 0 0 0
0 0 0 1 0 0 0 0 0 0 0 0 0 0 0 0 0 0 0 0 0 0 0 0 0 0 0 0 0 0 0 0 0 0 0 0 0 0 0 0 0 0 0
0 0 1 0 0 0 0 0 0 0 0 0 0 0 0 0 0 0 0 0 0 0 0 0 0 0 0 0 0 0 0 0 0 0 0 0 0 0 0 0 0 0 0
0 1 1 0 0 0 0 0 0 0 0 0 0 0 0 0 0 0 0 0 0 0 0 0 0 0 0 0 0 0 0 0 0 0 0 0 0 0 0 0 0 0 0
1 1 0 0 0 0 0 0 0 0 0 0 0 0 0 0 0 0 0 0 0 0 0 0 0 0 0 0 0 0 0 0 0 0 0 0 0 0 0 0 0 0 0
0 0 0 0 0 0 0 0 0 0 0 0 0 0 0 0 0 0 0 0 0 0 0 0 0 0 0 0 0 0 0 0 0 0 0 0 0 0 0 0 0 0 0
0 0 0 0 0 0 0 0 0 0 0 0 0 0 0 0 0 0 0 0 0 0 0 0 0 0 0 0 0 0 0 0 0 0 0 0 0 0 0 0 0 0 1
0 0 0 0 0 0 0 0 0 0 0 0 0 0 0 0 0 0 0 0 0 0 0 0 0 0 0 0 0 0 0 0 0 0 0 0 0 0 0 0 0 0 1
0 0 0 0 0 0 0 0 0 0 0 0 0 0 0 0 0 0 0 0 0 0 0 0 0 0 0 0 0 0 0 0 0 0 0 0 0 0 0 0 0 0 1
0 0 0 0 0 0 0 0 0 0 0 0 0 0 0 0 0 0 0 0 0 0 0 0 0 0 0 0 0 0 0 0 0 0 0 0 0 0 0 0 0 0 0
0 0 0 0 0 0 0 0 0 0 0 0 0 0 0 0 0 0 0 0 0 0 0 0 0 0 0 0 0 0 0 0 0 0 0 0 0 0 0 0 0 0 0
0 0 0 0 0 0 0 0 0 0 0 0 0 0 0 0 0 0 0 0 0 0 0 0 0 0 0 0 0 0 0 0 0 0 0 0 0 0 0 0 0 0 0
0 0 0 0 0 0 0 0 0 0 0 0 0 0 0 0 0 0 0 0 0 0 0 0 0 0 0 0 0 0 0 0 0 0 0 0 0 0 0 0 0 0 0
0 0 0 0 0 0 0 0 0 0 0 0 0 0 0 0 0 0 0 0 0 0 0 0 0 0 0 0 0 0 0 0 0 0 0 0 0 0 0 0 0 0 0
0 0 0 0 0 0 0 0 0 0 0 0 0 0 0 0 0 0 0 0 0 0 0 0 0 0 0 0 0 0 0 0 0 0 0 0 0 0 0 0 0 0 0
0 0 0 0 0 0 0 0 0 0 0 0 0 0 0 0 0 0 0 0 0 0 0 0 0 0 0 0 0 0 0 0 0 0 0 0 0 0 0 0 0 0 0
0 0 0 0 0 0 0 0 0 0 0 0 0 0 0 0 0 0 0 0 0 0 0 0 0 0 0 0 0 0 0 0 0 0 0 0 0 0 0 0 0 0 0
0 0 0 0 0 0 0 0 0 0 0 0 0 0 0 0 0 0 0 0 0 0 0 0 0 0 0 0 0 0 0 0 0 0 0 0 0 0 0 0 0 0 0
Wind_Speed
4 4 4 4 4 5 5 5 5 4 5 5 5 5 5 5 4 4 4 4 5 5 5 5 5 5 4 4 4 3 4 4 6 5 3 3 3 4 4 4 4 4 4
4 4 4 4 4 5 5 5 5 5 5 5 5 5 5 5 5 5 6 5 6 6 6 6 6 5 6 5 4 5 4 4 5 6 4 3 4 4 4 4 4 4 3
3 4 4 4 4 5 5 5 5 5 5 5 5 6 6 6 6 6 6 6 7 7 7 7 6 6 6 5 5 5 4 4 4 5 5 4 3 3 3 4 4 3 4
3 4 4 4 4 5 5 4 5 5 5 6 6 6 6 6 6 6 6 6 7 7 7 7 7 7 7 7 6 6 5 5 4 5 4 4 3 3 2 3 4 3 3
3 4 4 3 3 3 4 4 4 5 6 6 6 6 6 6 6 7 7 7 7 7 7 7 7 8 9 8 6 5 5 4 4 4 4 4 3 3 3 3 4 4 4
3 4 3 3 3 3 4 4 5 5 5 5 6 6 7 6 8 10 8 7 7 7 7 6 6 7 9 10 10 9 8 6 5 5 5 5 5 4 3 3 4 4 4
2 3 3 3 4 4 4 4 5 5 5 6 6 6 7 8 11 11 11 7 7 6 6 6 5 6 7 5 7 8 8 10 10 7 6 6 5 4 4 4 5 5 5
2 3 3 3 4 3 4 5 5 5 5 6 6 6 7 8 10 11 10 7 6 6 7 7 7 6 7 7 6 6 6 6 7 6 6 6 5 5 5 5 5 5 5
3 3 3 3 3 4 4 5 5 4 5 5 6 6 6 7 9 10 9 5 5 6 6 7 7 7 9 10 7 6 6 5 6 7 8 8 8 8 5 3 3 3 5
3 4 3 3 4 4 5 5 4 4 5 5 5 5 6 6 9 10 10 5 5 5 5 6 9 8 9 9 6 5 6 5 4 4 5 5 4 4 6 4 4 4 4
3 3 3 3 3 4 4 4 4 4 4 4 5 5 5 7 8 9 9 5 5 5 5 4 5 8 9 9 7 5 6 5 3 2 3 3 3 3 3 3 3 4 4
3 3 3 3 3 3 3 3 3 3 3 4 4 4 4 5 6 8 9 8 7 5 4 4 4 8 9 9 6 6 5 4 1 2 2 3 3 3 3 3 3 3 4
2 3 3 3 3 3 3 3 2 2 2 3 3 4 4 3 4 7 8 8 8 5 4 7 7 7 6 4 4 5 3 1 1 2 3 3 3 3 2 2 2 3 4
2 3 3 3 3 4 3 3 2 2 3 3 3 3 4 3 4 4 4 5 6 6 4 4 4 4 3 3 2 2 2 2 2 2 2 3 2 2 2 2 2 2 3
3 3 3 3 3 3 4 3 3 3 4 4 4 4 4 4 6 7 4 3 3 4 2 1 1 1 1 1 1 1 1 1 1 1 2 2 2 2 2 2 2 2 2
3 3 3 2 3 3 3 4 5 5 6 7 7 5 4 5 6 5 5 4 3 2 0 1 1 1 2 2 2 2 2 2 2 2 2 2 2 3 3 2 2 2 3
3 3 2 2 3 3 3 3 3 5 6 6 6 6 5 4 4 4 3 2 1 0 1 1 2 2 2 2 2 2 2 2 2 2 2 2 2 3 3 3 3 3 3
3 3 3 2 2 2 3 3 2 3 3 4 5 6 5 4 3 3 2 1 1 1 1 2 2 2 2 2 2 2 2 2 2 2 2 2 2 3 3 3 3 3 3
2 2 2 2 2 2 2 3 3 3 3 3 3 3 4 3 3 3 2 0 1 1 1 2 2 2 2 2 2 2 2 2 2 2 2 3 2 3 3 3 3 5 4
2 5 4 2 2 2 2 2 3 3 2 2 3 3 2 2 1 1 1 1 1 1 1 2 2 2 2 2 2 2 2 2 2 3 3 3 3 3 3 4 4 4 4
2 3 6 4 3 2 2 2 2 2 2 2 3 4 4 1 1 1 1 1 1 1 2 2 2 2 2 2 2 3 3 3 3 3 3 3 3 3 3 3 3 4 4
2 2 2 3 3 3 3 3 3 3 3 3 3 4 6 3 2 1 1 1 1 1 1 2 2 2 2 2 3 3 3 4 3 3 3 3 3 3 3 3 3 3 4
2 2 2 3 3 4 4 3 3 3 3 3 3 3 3 3 2 2 2 2 2 2 2 2 2 2 2 2 3 3 4 4 4 3 3 3 4 4 3 4 4 4 4
1 2 2 2 2 3 3 3 3 3 3 3 3 3 3 3 3 3 3 2 2 2 2 2 2 3 4 4 3 3 3 4 4 4 5 5 5 4 4 4 4 5 5
1 2 2 2 2 3 3 3 3 3 3 3 3 3 3 3 3 3 3 3 3 3 3 3 3 3 4 5 5 4 7 10 9 5 4 4 5 5 4 4 4 4 5
1 2 2 2 2 3 3 3 3 3 3 4 4 3 4 4 4 4 3 3 3 3 4 3 4 4 5 5 6 8 10 10 10 10 6 4 4 4 4 4 5 4 5
Wind_Direction
218 220 220 227 225 213 211 216 214 218 218 219 220 223 227 230 230 230 237 239 241 248 250 244 246 240 236 232 234 236 242 247 260 277 280 281 269 270 283 286 290 284 276
223 222 225 231 223 213 217 222 218 221 222 222 220 222 228 232 230 229 235 239 238 243 245 243 246 243 240 232 232 237 241 246 251 269 278 273 264 259 266 274 289 296 275
220 221 231 235 220 218 221 223 219 221 225 224 221 225 229 231 231 234 233 237 238 239 240 240 243 239 246 239 237 240 243 251 249 253 266 271 271 265 274 286 282 291 283
220 220 227 234 230 227 225 225 224 224 225 225 227 228 230 232 236 237 239 238 238 242 243 241 241 237 242 237 239 239 239 244 248 249 256 265 270 264 257 275 285 295 284
225 231 239 243 241 242 234 229 231 230 232 230 230 233 231 231 233 231 233 236 237 241 245 244 244 248 253 249 247 236 231 236 249 253 256 267 267 261 257 271 278 292 279
226 236 244 245 244 243 244 236 232 232 234 233 234 234 237 241 249 253 251 240 241 240 245 248 248 252 258 261 263 261 252 242 240 249 256 254 258 259 264 266 270 284 280
248 244 245 242 244 246 249 247 237 234 237 237 238 238 240 243 252 253 254 249 241 239 238 242 250 251 258 246 258 263 264 263 257 251 251 254 250 246 247 259 261 265 273
264 260 250 249 255 257 253 251 248 243 236 237 242 240 243 248 253 255 258 253 244 241 237 236 239 242 244 242 238 244 251 256 258 257 249 252 252 243 237 246 251 271 279
275 274 262 255 261 260 257 256 252 250 248 241 242 239 241 248 255 257 259 241 241 243 243 240 240 237 246 253 243 238 250 262 273 271 270 268 267 269 259 247 247 255 277
282 284 278 267 260 261 261 263 263 257 254 247 251 243 241 245 252 256 256 237 237 241 243 241 249 249 250 254 239 229 240 251 255 271 281 277 271 262 262 240 229 241 267
301 301 296 290 281 275 275 273 263 261 256 245 250 254 247 248 252 255 255 240 233 240 243 239 241 254 257 260 262 240 246 265 254 265 278 268 261 249 245 242 237 236 248
319 318 316 314 309 304 295 290 275 254 247 242 239 253 249 251 255 254 257 256 256 244 245 243 245 254 258 262 267 261 272 291 261 254 262 264 258 255 256 250 249 255 255
340 335 328 330 329 322 310 296 281 252 239 246 233 240 250 250 253 263 263 263 267 258 246 256 260 263 269 263 262 266 275 246 230 245 255 263 265 262 273 282 281 279 283
346 339 334 339 336 333 322 301 276 251 244 242 241 245 249 251 247 246 239 246 256 258 251 250 264 273 280 278 262 257 247 233 241 251 269 276 277 269 266 265 272 283 289
352 345 344 342 335 332 325 310 294 267 253 249 239 237 239 242 251 259 259 248 240 245 251 198 182 211 233 244 246 243 238 241 255 256 264 272 279 280 284 282 267 258 263
355 348 343 339 335 335 334 333 324 309 298 289 284 277 268 268 276 275 277 281 287 295 144 171 197 223 237 243 243 251 253 250 253 261 267 269 276 280 284 285 267 249 259
347 336 337 340 339 338 337 335 332 336 331 319 304 298 294 289 290 295 296 293 282 190 173 201 220 228 237 259 259 256 262 266 264 262 264 268 273 275 277 281 269 259 261
344 331 339 338 334 335 335 331 323 325 328 330 325 313 304 295 294 293 296 314 227 238 221 224 232 242 246 256 261 273 279 277 270 264 266 269 268 272 277 275 269 259 263
343 337 340 343 342 343 343 344 339 334 333 331 333 333 333 316 312 313 312 269 231 247 246 248 246 244 254 261 263 264 269 274 272 270 268 268 267 269 275 274 275 274 277
345 339 348 348 347 351 350 347 343 339 338 339 337 330 343 4 1 322 307 290 269 265 264 260 261 258 256 252 256 257 260 264 267 267 265 264 264 263 268 274 274 277 276
348 340 341 346 345 341 341 336 331 329 332 333 330 330 335 354 358 351 339 334 316 292 279 270 267 268 261 257 254 255 258 261 259 260 263 264 265 269 272 273 277 279 280
345 341 341 339 337 336 335 326 325 328 331 330 330 334 339 352 354 340 326 322 321 307 294 284 276 270 262 254 251 253 258 262 261 255 262 268 268 266 267 271 278 280 276
345 341 338 334 332 327 331 333 335 333 328 327 325 330 334 336 331 324 316 313 310 305 300 286 278 278 275 270 262 252 253 257 259 252 253 262 264 264 261 262 266 271 276
336 326 322 322 324 322 321 324 326 324 323 322 322 321 321 320 319 318 317 315 309 305 300 290 280 277 280 283 278 267 258 261 259 249 242 245 253 257 254 257 263 265 269
317 312 312 310 312 314 315 317 318 318 317 315 315 315 315 316 315 314 314 312 310 305 300 291 282 280 279 276 276 274 273 277 275 264 245 241 244 249 251 254 257 263 268
316 314 312 310 307 306 307 307 309 310 309 309 310 311 309 306 304 305 306 305 303 301 298 294 286 281 278 277 275 276 281 283 281 278 272 249 237 243 247 253 255 258 262